Regional Weather Roundup
Issued by NWS Boston, MA

Current Version | Previous Version | Text Only | Print | Product List | Glossary Off
Versions: 1 2 3 4 5 6 7 8 9 10 11 12 13 14 15 16 17 18 19 20 21 22 23 24 25 26 27 28 29 30 31 32 33 34 35 36 37 38 39 40 41 42 43 44 45 46 47 48 49 50
000 ASUS41 KBOX 201300 RWRBOX REGIONAL WEATHER ROUNDUP NATIONAL WEATHER SERVICE BOSTON/NORTON MA 900 AM EDT THU JUN 20 2019 NOTE: "FAIR" INDICATES FEW OR NO CLOUDS BELOW 12,000 FEET WITH NO SIGNIFICANT WEATHER AND/OR OBSTRUCTIONS TO VISIBILITY. MAZALL-201400- EASTERN MASSACHUSETTS CITY SKY/WX TMP DP RH WIND PRES REMARKS BOSTON LGT RAIN 62 59 90 E7 29.71F VSB 1/2 BEVERLY LGT RAIN 60 59 96 SE6 29.71F FOG LAWRENCE LGT RAIN 63 61 93 E3 29.72F FOG BEDFORD NOT AVBL BLUE HILL N/A 63 63 100 SE6 29.70F NORWOOD RAIN 68 64 87 E3 29.70F FOG MARSHFIELD NOT AVBL PLYMOUTH LGT RAIN 63 61 93 SE5 29.72S TAUNTON RAIN 66 63 90 SE5 29.70F FOG NEW BEDFORD LGT RAIN 63 62 97 CALM 29.71S FOG $$ MAZALL-201400- CAPE COD AND THE ISLANDS CITY SKY/WX TMP DP RH WIND PRES REMARKS FALMOUTH CLOUDY 61 61 100 SE8 29.72F HYANNIS NOT AVBL CHATHAM CLOUDY 60 58 92 E6 29.74F PROVINCETOWN LGT RAIN 61 60 97 SE7 29.73F NANTUCKET CLOUDY 63 62 97 SE5 29.73S MARTHAS VNYRD FOG 63 62 97 E7 29.72F VSB 1/4 $$ MAZALL-201400- CENTRAL AND WESTERN MASSACHUSETTS CITY SKY/WX TMP DP RH WIND PRES REMARKS WORCESTER LGT RAIN 63 63 100 E5 29.71F VSB<1/4 FITCHBURG LGT RAIN 65 63 93 E3 29.71F FOG ORANGE CLOUDY 67 65 93 SE3 29.69F FOG SPRINGFIELD CLOUDY 66 66 98 CALM 29.66F WESTFIELD CLOUDY 66 64 93 SE3 29.67S NORTH ADAMS CLOUDY 69 64 84 NE6 29.65F PITTSFIELD CLOUDY 68 64 87 CALM 29.66F $$ RIZALL-201400- RHODE ISLAND CITY SKY/WX TMP DP RH WIND PRES REMARKS PROVIDENCE LGT RAIN 63 63 100 SE3 29.70F FOG NEWPORT FOG 64 63 96 SE5 29.70F VSB 1/4 BLOCK ISLAND FOG 65 64 97 S8 29.70F VSB 1/4 SMITHFIELD LGT RAIN 64 63 96 SE6 29.71F FOG WESTERLY LGT RAIN 65 65 100 E6 29.69F VSB 1 $$ CTZALL-201400- CONNECTICUT CITY SKY/WX TMP DP RH WIND PRES REMARKS BRADLEY INTL CLOUDY 67 64 90 CALM 29.67S FOG HARTFORD CLOUDY 67 65 93 CALM 29.66F BRIDGEPORT FOG 65 64 97 E10 29.65F VSB 1/4 DANBURY FOG 65 64 97 NE5 29.67F VSB 3/4 GROTON NOT AVBL NEW HAVEN FOG 68 67 96 E8 29.65F VSB 1/4 CHESTER FOG 66 66 100 E3 29.67F VSB<1/4 MERIDEN CLOUDY 67 64 90 CALM 29.66F FOG WILLIMANTIC CLOUDY 65 64 97 SE5 29.68F FOG OXFORD FOG 65 65 100 SE6 29.68F VSB 1/8 $$ MEZ002-015-021-024-NHZ003-005-008-011-012-014-VTZ005-008-201400- NORTHERN NEW ENGLAND CITY SKY/WX TMP DP RH WIND PRES REMARKS PORTLAND ME FOG 58 57 97 E5 29.75S VSB 1/4 BANGOR ME CLOUDY 62 58 86 SE10 29.75F CONCORD NH CLOUDY 64 63 96 E6 29.70F FOG MANCHESTER NH RAIN 66 65 96 E5 29.68F FOG NASHUA NH LGT RAIN 65 65 100 SE6 29.70F FOG PORTSMOUTH NH NOT AVBL JAFFREY NH CLOUDY 66 63 90 CALM 29.71S KEENE NH LGT RAIN 66 65 96 CALM 29.68F FOG BURLINGTON VT CLOUDY 70 64 81 SE6 29.63F MT. WASHINGTON FOG 52 52 100 S12 N/A VSB 1/4 $$ NYZ052-076-201400- EASTERN NEW YORK CITY SKY/WX TMP DP RH WIND PRES REMARKS ALBANY CLOUDY 71 65 81 S9 29.62F NEW YORK CITY FOG 64 64 100 NE6 29.63F VSB 1/4 $$ ANZALL-201400- MARINE OBSERVATIONS STATION/POSITION TIME TEMP WIND PRES VSBY WAVE AIR SEA DIR/SP/G HT/PER (UTC) (F) (DEG/KT/KT) (MB) (MI) (FT/S) BOSTON BUOY 1150 59 58 100/ 6/ 6 1006.1 1/11 BUZZARDS BAY NOT AVBL NANTUCKET SOUND 1230 64 1006.8 MASS BAY-STELLWA 1204 58 57 130/ 8/ 10 1006.6F 1 7/8 2/11 ISLE OF SHOALS 1200 57 130/ 6/ 7 1006.4F S OF BLOCK IS 1230 60 N/A 2/ 6 $$ ......................KEY......................... SKY/WX - SKY CONDITION/PRESENT WEATHER TMP - TEMPERATURE IN FAHRENHEIT DWPT - DEWPOINT IN FAHRENHEIT RH - RELATIVE HUMIDITY IN PERCENT WIND - DIRECTION AND SPEED IN MPH PRES - MEAN SEA LEVEL PRESSURE IN INCHES OF HG WCI - WIND CHILL INDEX VSB - VISIBILITY IN MILES HX - HEAT INDEX TC - TEMPERATURE IN CELSIUS VRB - VARIABLE WIND DIRECTION N/A - NOT AVAILABLE

USA.gov is the U.S. government's official web portal to all federal, state and local government web resources and services.